{"data":{"norad_id":62455,"intl_designator":"2024-252B","name":"NUVIEW ALPHA","alt_names":[],"object_type":"PAYLOAD","status":"ACTIVE","operator":null,"country":"UK","launch_date":"2024-12-29","launch_site_code":"AFETR","launch_vehicle":null,"mission":null,"orbit_class":"UNKNOWN","rcs_meters":null,"size_class":null,"mass_kg":null,"dimensions":null,"purposes":["comms"],"wikipedia_slug":null,"has_3d_model":false,"image_url":null,"decayed_at":null,"tle_current":{"epoch":"2026-05-25T03:02:38.776416Z","epoch_age_seconds":74682,"freshness":"FRESH","line1":"1 62455U 24252B   26145.12683769 -.00000218  00000+0  00000+0 0  9997","line2":"2 62455   0.0660  43.9470 0001510  15.9048 145.4312  1.00270822  3596","mean_motion":1.00270822,"eccentricity":0.000151,"inclination_deg":0.066,"raan_deg":43.947,"arg_perigee_deg":15.9048,"mean_anomaly_deg":145.4312,"bstar":0,"rev_number":359,"period_min":1436.1106962901,"perigee_km":35780.498011918,"apogee_km":35793.2318425,"semimajor_km":42165.001927209,"source":"CELESTRAK","updated_at":"2026-05-25T13:38:14.149534Z"}}}